Home   Weather   Romsey   Past weeks
Flag for United Kingdom

Past Weather in Romsey, England, United Kingdom — Yesterday and Last 2 Weeks

Now
37 °F

Passing clouds.


Feels Like: 32 °F
Forecast: N/A
Wind: 7 mph from North

Location: Southampton / Weather Centre

Current Time: Jan 20, 2019 at 5:12:49 pm

Latest Report: Jan 20, 2019 at 4:20 pm


Visibility: N/A

Pressure: 30.12 "Hg

Humidity: 75%

Dew Point: 30 °F

Location of RomseyLocation

Past Weather in Romsey — Graph

°F

Romsey Temperature Yesterday

Maximum temperature yesterday: 43 °F (at 10:20 am)
Minimum temperature yesterday: 39 °F (at 8:50 pm)
Average temperature yesterday: 41 °F

High & Low Weather Summary for the Past Weeks

 TemperatureHumidityPressure
High52 °F (Jan 13, 12:20 pm)100% (Jan 10, 6:20 am)30.69 "Hg (Jan 10, 6:20 am)
Low27 °F (Jan 18, 5:50 am)49% (Jan 18, 3:20 pm)29.59 "Hg (Jan 16, 2:20 pm)
Average43 °F79%30.20 "Hg
* Reported Jan 5 3:20 pm — Jan 20 3:50 pm, Romsey. Weather by CustomWeather, © 2019

Note: Actual official high and low records may vary slightly from our data, if they occured in-between our weather recording intervals... More about our weather records

Advertising

Romsey Weather History for the Previous 24 Hours

Scroll right to see more
 ConditionsComfort  
Time TempWeatherWind HumidityBarometerVisibility
3:50 pm
Sun, Jan 20
37 °FPassing clouds.9 mph70%30.12 "HgN/A
3:20 pm39 °FPassing clouds.6 mph70%30.09 "HgN/A
2:50 pm39 °FPassing clouds.5 mph70%30.09 "HgN/A
2:20 pm39 °FSunny.3 mph70%30.09 "Hg10 mi
1:20 pm37 °FPassing clouds.3 mph70%30.07 "HgN/A
12:50 pm37 °FPassing clouds.5 mph70%30.07 "HgN/A
12:20 pm36 °FPassing clouds.6 mph75%30.07 "HgN/A
11:50 am36 °FPassing clouds.5 mph75%30.07 "HgN/A
11:20 am36 °FScattered clouds.7 mph75%30.07 "HgN/A
10:50 am34 °FPartly sunny.7 mph87%30.07 "HgN/A
10:20 am34 °FPartly sunny.5 mph81%30.07 "HgN/A
9:50 am34 °FPartly sunny.6 mph81%30.04 "HgN/A
9:20 am34 °FPartly sunny.6 mph87%30.04 "HgN/A
8:50 am34 °FPartly sunny.5 mph93%30.01 "HgN/A
8:20 am34 °FPartly sunny.5 mph93%30.01 "HgN/A
7:50 am34 °FPassing clouds.5 mph93%29.98 "HgN/A
7:20 am34 °FPassing clouds.2 mph87%29.95 "HgN/A
6:50 am34 °FPassing clouds.1 mph87%29.95 "HgN/A
9:50 pm
Sat, Jan 19
39 °FPassing clouds.6 mph93%29.83 "Hg5 mi
9:20 pm39 °FScattered showers. Passing clouds.5 mph93%29.80 "Hg5 mi
8:50 pm39 °FScattered showers. Passing clouds.7 mph93%29.80 "Hg5 mi
8:20 pm41 °FScattered showers. Passing clouds.8 mph87%29.80 "Hg5 mi
7:50 pm41 °FScattered showers. Passing clouds.7 mph87%29.77 "Hg5 mi
7:20 pm41 °FScattered showers. Partly cloudy.7 mph93%29.77 "Hg5 mi
6:50 pm41 °FScattered showers. Partly cloudy.6 mph93%29.77 "Hg5 mi
6:20 pm41 °FScattered showers. Partly cloudy.7 mph93%29.77 "Hg5 mi
5:50 pm41 °FPartly cloudy.6 mph93%29.77 "Hg5 mi
5:20 pm41 °FScattered showers. Partly cloudy.6 mph93%29.77 "Hg5 mi
Weather by CustomWeather, © 2019

See weather overview

LIVE TOTAL LUNAR ECLIPSE – Watch the eclipse as it happens